(348858) = 2006 SW128 = 2008 AM67

Discovered at Catalina on 2006-09-17 by CSS.

Orbit

Orbit type: Main Belt

Note: WebGL enabled browser required.

epoch2023-09-13.0
epoch JD2460200.5
perihelion date2023-06-24.89374
perihelion JD2460120.39374
argument of perihelion (°)104.04294
ascending node (°)308.34011
inclination (°)14.99143
eccentricity0.1609166
perihelion distance (AU)2.6006825
Tisserand w.r.t. Jupiter3.2
ΔV w.r.t. Earth (km/sec)11.1
semimajor axis (AU)3.0994326
mean anomaly (°)14.46928
mean daily motion (°/day)0.18062610
aphelion distance (AU)3.598
period (years)5.46
P-vector [x]0.58448185
P-vector [y]0.60813411
P-vector [z]0.53717210
Q-vector [x]-0.78563149
Q-vector [y]0.58967993
Q-vector [z]0.18724514
absolute magnitude16.27
phase slope0.15
uncertainty0
referenceMPEC 2024-A74
observations used222
oppositions11
arc length (days)9823
first opposition used1997
last opposition used2024
residual rms (arc-secs)0.72
perturbers coarse indicatorM-v
perturbers precise indicator003Ek
first observation date used1997-02-14.0
last observation date used2024-01-07.0
computer nameMPCLINUX
JD of orbit computation2456274.111058
perihelion JD uncertainty (days)2.7747E-04
argument of perihelion uncertainty (°)6.7918E-05
ascending node uncertainty (°)2.4058E-05
inclination uncertainty (°)1.1191E-05
eccentricity uncertainty 5.3032E-08
perihelion distance uncertainty (AU)1.5738E-07
Minimum Orbit Intersection Distances (in AU)
for orbit epoch: 2460200.5, reference: E2024-A74
Mercury2.29851
Venus1.91487
Earth1.66091
Mars1.13927
Jupiter1.87957
Saturn6.22032
Uranus15.1986
Neptune27.0167

Observations

226 total observations over interval: 1997 02 14.25477 – 2024 01 07.457461
These data are available for download (format description).

Date (UT) J2000 RA J2000 Dec Magn Location Ref
1997 02 14.25477 08 12 12.38 +19 47 53.3 21.0 V 691 – Steward Observatory, Kitt Peak-Spacewatch MPS 236310
1997 02 14.28157 08 12 11.12 +19 47 49.1 20.9 V 691 – Steward Observatory, Kitt Peak-Spacewatch MPS 236310
1997 02 14.30548 08 12 09.97 +19 47 45.9 20.9 V 691 – Steward Observatory, Kitt Peak-Spacewatch MPS 236310
2000 09 03.222130 21 24 55.123 -07 23 23.61 20.72 V 645 – Apache Point-Sloan Digital Sky Survey MPS 236310
2000 09 03.225602 21 24 54.956 -07 23 23.75 21.43   645 – Apache Point-Sloan Digital Sky Survey MPS 236310
2006 09 17.41677 00 55 14.91 +28 10 52.7 20.3 V 703 – Catalina Sky Survey MPS 181361
2006 09 17.42861 00 55 14.26 +28 10 55.5 20.8 V 703 – Catalina Sky Survey MPS 181361
2006 09 17.44041 00 55 13.69 +28 10 57.8 20.3 V 703 – Catalina Sky Survey MPS 181361
2006 09 17.45228 00 55 13.18 +28 10 58.8 20.3 V 703 – Catalina Sky Survey MPS 181361
2006 09 24.26189 00 49 54.96 +28 25 25.3 19.4 R 699 – Lowell Observatory-LONEOS MPS 181361
2006 09 24.28479 00 49 53.69 +28 25 26.5   699 – Lowell Observatory-LONEOS MPS 181361
2006 09 24.30768 00 49 52.49 +28 25 28.7   699 – Lowell Observatory-LONEOS MPS 181361
2006 09 24.33060 00 49 51.35 +28 25 29.6   699 – Lowell Observatory-LONEOS MPS 181361
2006 10 19.21944 00 27 47.08 +27 38 06.2 20.0 V 703 – Catalina Sky Survey MPS 236310
2006 10 19.22861 00 27 46.54 +27 38 01.9 19.6 V 703 – Catalina Sky Survey MPS 236310
2006 10 19.23773 00 27 46.11 +27 38 00.3 19.6 V 703 – Catalina Sky Survey MPS 236310
2006 10 19.24691 00 27 45.64 +27 37 57.2 19.5 V 703 – Catalina Sky Survey MPS 236310
2006 11 22.16992 00 12 49.42 +24 15 42.3 21.1 V 703 – Catalina Sky Survey MPS 236310
2006 11 22.17955 00 12 49.57 +24 15 38.4 20.7 V 703 – Catalina Sky Survey MPS 236310
2006 11 22.18913 00 12 49.57 +24 15 35.0 21.1 V 703 – Catalina Sky Survey MPS 236310
2006 11 22.19875 00 12 49.53 +24 15 31.5 20.8 V 703 – Catalina Sky Survey MPS 236310
2007 12 30.48220 09 29 22.34 +15 37 04.2 20.3 V G96 – Mt. Lemmon Survey MPS 236310
2007 12 30.49058 09 29 22.09 +15 37 02.7 20.9 V G96 – Mt. Lemmon Survey MPS 236310
2007 12 30.49914 09 29 21.84 +15 37 01.9 21.0 V G96 – Mt. Lemmon Survey MPS 236310
2007 12 30.50753 09 29 21.55 +15 37 00.7 21.1 V G96 – Mt. Lemmon Survey MPS 236310
2008 01 11.39767 09 21 45.70 +15 16 37.0 20.1 V 691 – Steward Observatory, Kitt Peak-Spacewatch MPS 234435
2008 01 11.41530 09 21 44.84 +15 16 35.9 20.5 V 691 – Steward Observatory, Kitt Peak-Spacewatch MPS 234435
2008 01 11.43294 09 21 44.02 +15 16 34.8 20.3 V 691 – Steward Observatory, Kitt Peak-Spacewatch MPS 234435
2008 01 15.42171 09 18 31.34 +15 11 42.8 20.6 V 691 – Steward Observatory, Kitt Peak-Spacewatch MPS 234435
2008 01 15.44006 09 18 30.40 +15 11 41.9 20.5 V 691 – Steward Observatory, Kitt Peak-Spacewatch MPS 234435
2008 01 15.45817 09 18 29.44 +15 11 40.6 20.2 V 691 – Steward Observatory, Kitt Peak-Spacewatch MPS 234435
2008 01 19.39668 09 15 04.07 +15 07 36.8 20.3 V 691 – Steward Observatory, Kitt Peak-Spacewatch MPS 239478
2008 01 19.41481 09 15 03.08 +15 07 35.5 20.4 V 691 – Steward Observatory, Kitt Peak-Spacewatch MPS 239478
2008 01 19.43664 09 15 01.89 +15 07 34.2 20.3 V 691 – Steward Observatory, Kitt Peak-Spacewatch MPS 239478
2008 01 30.31301 09 04 43.42 +14 58 57.1 20.5 V 703 – Catalina Sky Survey MPS 236310
2008 01 30.32044 09 04 42.92 +14 58 55.0 20.8 V 703 – Catalina Sky Survey MPS 236310
2008 01 30.32788 09 04 42.49 +14 58 55.1 20.7 V 703 – Catalina Sky Survey MPS 236310
2008 01 30.33531 09 04 42.06 +14 58 56.7 20.7 V 703 – Catalina Sky Survey MPS 236310
2008 02 03.27314 09 00 50.18 +14 56 17.4 20.0 V G96 – Mt. Lemmon Survey MPS 236310
2008 02 03.27868 09 00 49.82 +14 56 17.2 20.0 V G96 – Mt. Lemmon Survey MPS 236310
2008 02 03.28429 09 00 49.50 +14 56 16.9 20.1 V G96 – Mt. Lemmon Survey MPS 236310
2008 02 03.28984 09 00 49.14 +14 56 16.9 20.1 V G96 – Mt. Lemmon Survey MPS 236310
2011 09 04.35325 21 55 31.261 -02 01 29.30 20.3 i F51 – Pan-STARRS 1, Haleakala MPS 391136
2011 09 04.36415 21 55 30.668 -02 01 29.82 20.2 i F51 – Pan-STARRS 1, Haleakala MPS 391136
2012 12 10.52315 06 02 56.978 +39 31 08.23 20.1 g F51 – Pan-STARRS 1, Haleakala MPS 446005
2012 12 10.53523 06 02 56.166 +39 31 06.08 20.1 g F51 – Pan-STARRS 1, Haleakala MPS 446005
2012 12 12.22545 06 01 06.18 +39 25 44.5 19.9 R 926 – Tenagra II Observatory, Nogales MPS 446005
2012 12 12.24423 06 01 04.88 +39 25 41.5 20.0 R 926 – Tenagra II Observatory, Nogales MPS 446005
2012 12 12.26141 06 01 03.68 +39 25 38.3 19.7 R 926 – Tenagra II Observatory, Nogales MPS 446005
2013 01 17.42209 05 27 15.224 +35 36 56.87 20.7 g F51 – Pan-STARRS 1, Haleakala MPS 452266
2013 01 17.43459 05 27 14.812 +35 36 50.86 20.6 g F51 – Pan-STARRS 1, Haleakala MPS 452266
2016 07 12.44125 20 09 54.903 -24 48 55.50 20.8 w F51 – Pan-STARRS 1, Haleakala MPS 721196
2016 07 12.45094 20 09 54.363 -24 48 55.30 20.9 w F51 – Pan-STARRS 1, Haleakala MPS 721196
2016 07 12.46061 20 09 53.823 -24 48 55.02 20.8 w F51 – Pan-STARRS 1, Haleakala MPS 721196
2016 07 12.47028 20 09 53.284 -24 48 54.61 20.7 w F51 – Pan-STARRS 1, Haleakala MPS 721196
2016 07 15.28613 20 07 18.75 -24 47 05.6 20.1 V G96 – Mt. Lemmon Survey MPS 721196
2016 07 15.29092 20 07 18.63 -24 47 04.5 19.8 V G96 – Mt. Lemmon Survey MPS 721196
2016 07 15.29573 20 07 18.35 -24 47 04.6 20.3 V G96 – Mt. Lemmon Survey MPS 721196
2016 07 15.30051 20 07 18.07 -24 47 03.5 19.9 V G96 – Mt. Lemmon Survey MPS 721196
2016 08 03.35680 19 49 40.657 -24 23 32.02 21.0 w F51 – Pan-STARRS 1, Haleakala MPS 723272
2016 08 03.36884 19 49 39.996 -24 23 30.88 20.9 w F51 – Pan-STARRS 1, Haleakala MPS 723272
2016 08 03.39298 19 49 38.702 -24 23 28.08 21.1 w F51 – Pan-STARRS 1, Haleakala MPS 723272
2016 08 07.35001 19 46 16.911 -24 15 54.14 21.1 w F51 – Pan-STARRS 1, Haleakala MPS 724890
2016 08 07.36210 19 46 16.301 -24 15 52.68 21.0 w F51 – Pan-STARRS 1, Haleakala MPS 724890
2016 08 07.38637 19 46 15.071 -24 15 49.73 21.0 w F51 – Pan-STARRS 1, Haleakala MPS 724890
2017 10 21.69408 01 25 27.27 +34 32 38.8 20.1 R D29 – Purple Mountain Observatory, XuYi Station MPS 831311
2017 10 21.70998 01 25 26.40 +34 32 34.8 20.0 R D29 – Purple Mountain Observatory, XuYi Station MPS 831311
2017 10 21.72589 01 25 25.46 +34 32 32.2 19.6 R D29 – Purple Mountain Observatory, XuYi Station MPS 831311
2017 10 22.18212 01 25 00.20 +34 30 58.0 20.2 R H15 – ISON-NM Observatory, Mayhill MPS 831311
2017 10 22.18845 01 24 59.78 +34 30 56.8 20.0 R H15 – ISON-NM Observatory, Mayhill MPS 831311
2017 10 22.19594 01 24 59.46 +34 30 54.8 20.2 R H15 – ISON-NM Observatory, Mayhill MPS 831311
2017 10 29.24109 01 18 35.43 +34 00 14.9   G96 – Mt. Lemmon Survey MPS 834065
2017 10 29.24694 01 18 35.14 +34 00 12.6   G96 – Mt. Lemmon Survey MPS 834065
2017 10 29.25269 01 18 34.82 +34 00 11.3   G96 – Mt. Lemmon Survey MPS 834065
2017 10 29.25843 01 18 34.58 +34 00 08.6 19.1 G G96 – Mt. Lemmon Survey MPS 834065
2017 11 09.44724 01 09 54.919 +32 51 02.44 19.6 i F51 – Pan-STARRS 1, Haleakala MPS 835439
2017 11 09.45948 01 09 54.417 +32 50 57.10 19.7 i F51 – Pan-STARRS 1, Haleakala MPS 835439
2017 11 09.47173 01 09 53.913 +32 50 51.87 19.7 i F51 – Pan-STARRS 1, Haleakala MPS 835439
2017 11 13.21565 01 07 37.12 +32 23 57.1 19.1 G G96 – Mt. Lemmon Survey MPS 838780
2017 11 13.22087 01 07 36.96 +32 23 54.7 18.9 G G96 – Mt. Lemmon Survey MPS 838780
2017 11 13.22611 01 07 36.75 +32 23 51.8 18.0 G G96 – Mt. Lemmon Survey MPS 838780
2017 11 13.23139 01 07 36.62 +32 23 49.7 18.0 G G96 – Mt. Lemmon Survey MPS 838780
2017 12 09.19467 01 02 59.37 +29 14 32.9 20.6 G G96 – Mt. Lemmon Survey MPS 848853
2017 12 09.19986 01 02 59.45 +29 14 31.2 20.4 G G96 – Mt. Lemmon Survey MPS 848853
2017 12 09.20504 01 02 59.49 +29 14 29.1 20.4 G G96 – Mt. Lemmon Survey MPS 848854
2017 12 09.21023 01 02 59.54 +29 14 27.2 20.6 G G96 – Mt. Lemmon Survey MPS 848854
2018 01 07.27499 01 20 29.235 +27 09 05.78 20.9 w F51 – Pan-STARRS 1, Haleakala MPS 857521
2018 01 07.28646 01 20 29.865 +27 09 04.19 20.9 w F51 – Pan-STARRS 1, Haleakala MPS 857521
2018 01 07.29800 01 20 30.508 +27 09 02.72 20.8 w F51 – Pan-STARRS 1, Haleakala MPS 857521
2018 01 07.30945 01 20 31.134 +27 09 01.19 21.0 w F51 – Pan-STARRS 1, Haleakala MPS 857521
